Location: Waco, TX
(31.5481°N, 97.1672°W)
Time: 11:00:28
(UTC-06:00)

Amateur Radio Satellites - All Passes

Search period start: 16 December 2017 10:30
Search period end: 17 December 2017 10:30
Location: Waco, TX, 31.5481°N, 97.1672°W

Satellite Date Start Highest point End Downlink Frequencies (MHz)
Time Altitude Azimuth
QB50P2 16 Dec 10:42:36 10:44:55 15° 69° (ENE) 10:47:14 145.880/145.840
NANOSAT C BR1 16 Dec 11:10:55 11:14:20 25° 72° (ENE) 11:17:45 145.865
PRISM 16 Dec 11:17:53 11:20:53 19° 264° (W) 11:23:54 437.425
Max Valier Satellite 16 Dec 11:19:40 11:21:08 12° 291° (WNW) 11:22:36 145.860
ISS 16 Dec 11:19:45 11:22:34 26° 321° (NW) 11:25:23 437.550
EO-79 16 Dec 11:26:53 11:30:54 46° 75° (ENE) 11:34:54 145.935-145.965
SRMSAT 16 Dec 11:27:24 11:29:55 13° 198° (SSW) 11:32:26 437.500
AIST 2D 16 Dec 11:34:54 11:37:57 29° 263° (W) 11:41:03 435.315
POLYITAN 1 16 Dec 11:50:14 11:54:25 87° 255° (WSW) 11:58:36 437.675
ESTCUBE 1 16 Dec 11:53:43 11:58:16 79° 102° (ESE) 12:02:47 437.505/2401.250
LO-87 16 Dec 12:05:34 12:08:53 38° 285° (WNW) 12:12:12 145.935 - 145.965
Oscar 19 16 Dec 12:06:48 12:09:27 14° 66° (ENE) 12:12:08 437.125/150
SPROUT 16 Dec 12:08:43 12:12:04 22° 96° (E) 12:15:25 437.525
AO-91 16 Dec 12:12:37 12:15:15 15° 70° (ENE) 12:17:45 145.960
QB50P2 16 Dec 12:16:32 12:20:21 34° 262° (W) 12:24:11 145.880/145.840
DUCHIFAT 1 16 Dec 12:18:09 12:22:11 50° 260° (W) 12:26:14 145.980
NANOSAT C BR1 16 Dec 12:46:56 12:49:56 19° 264° (W) 12:52:57 145.865
BUGSAT 1 16 Dec 12:50:47 12:54:50 78° 76° (ENE) 12:58:51 437.445
RS-15 16 Dec 12:54:36 13:04:19 29° 103° (ESE) 13:14:02 29.354- 29.394
Gurwin Techsat 1B 16 Dec 13:01:52 13:06:46 39° 72° (ENE) 13:11:40 435.225
EO-79 16 Dec 13:06:24 13:06:49 10° 267° (W) 13:07:14 145.935-145.965
VELOX 1 16 Dec 13:18:30 13:22:55 87° 283° (WNW) 13:27:17 145.980
AO-7 16 Dec 13:36:46 13:42:23 21° 58° (ENE) 13:48:01 .
SO-50 16 Dec 13:40:35 13:41:25 10° 107° (ESE) 13:42:16 436.795
Oscar 19 16 Dec 13:43:15 13:48:15 54° 259° (W) 13:53:17 437.125/150
SPROUT 16 Dec 13:44:30 13:47:48 22° 289° (WNW) 13:51:05 437.525
AO-91 16 Dec 13:46:35 13:51:23 46° 260° (W) 13:55:47 145.960
NO-84 16 Dec 13:47:35 13:51:20 47° 47° (NE) 13:55:19 435.350 FM
UKube-1 16 Dec 13:48:39 13:51:52 20° 96° (E) 13:55:03 .
DX 1 16 Dec 14:07:49 14:12:07 64° 101° (E) 14:16:24 434.975-435.025
50 SAT 16 Dec 14:09:27 14:12:36 82° 105° (ESE) 14:15:42 437.505
YUBILEINY 16 Dec 14:23:12 14:32:00 69° 83° (E) 14:40:40 435.215
Gurwin Techsat 1B 16 Dec 14:42:56 14:46:45 20° 265° (W) 14:50:36 435.225
ITAMSAT 1 16 Dec 15:00:04 15:04:52 39° 71° (ENE) 15:09:41 435.822/435.867
RS-15 16 Dec 15:03:32 15:15:46 70° 300° (WNW) 15:28:03 29.354- 29.394
ITUPSAT 1 16 Dec 15:05:37 15:09:13 21° 96° (E) 15:12:47 437.325
M-CUBED/EXP-1 PRIME 16 Dec 15:12:06 15:16:21 87° 70° (ENE) 15:20:53 437.505
SO-50 16 Dec 15:16:57 15:21:19 55° 300° (WNW) 15:25:43 436.795
DOVE 4 16 Dec 15:20:07 15:20:55 10° 66° (ENE) 15:21:44 437.250
UKube-1 16 Dec 15:24:15 15:27:46 25° 289° (WNW) 15:31:17 .
AO-7 16 Dec 15:25:58 15:34:14 76° 254° (WSW) 15:42:35 .
NO-84 16 Dec 15:26:03 15:28:22 15° 238° (WSW) 15:30:44 435.350 FM
CUBESAT XI-V 16 Dec 15:27:24 15:29:07 12° 93° (E) 15:30:51 437.345
MOZHAYETS 4 16 Dec 15:32:58 15:37:36 73° 102° (ESE) 15:42:13
BEESAT 16 Dec 16:12:32 16:17:15 65° 285° (WNW) 16:21:57 436.000
YUBILEINY 16 Dec 16:22:04 16:27:50 20° 278° (W) 16:33:37 435.215
ITAMSAT 1 16 Dec 16:40:42 16:44:22 19° 264° (W) 16:48:04 435.822/435.867
ITUPSAT 1 16 Dec 16:42:48 16:46:58 31° 289° (WNW) 16:51:08 437.325
CUTE-I 16 Dec 16:44:17 16:46:25 12° 64° (ENE) 16:48:32 437.470
XW-2B 16 Dec 16:51:20 16:52:26 11° 69° (ENE) 16:53:31 145.730 - 145.750
DOVE 4 16 Dec 16:52:38 16:57:55 78° 259° (WSW) 17:03:05 437.250
XW-2F 16 Dec 17:00:27 17:02:27 14° 70° (ENE) 17:04:27 145.980 - 146.000
CUBESAT XI-V 16 Dec 17:02:09 17:06:42 51° 285° (WNW) 17:11:13 437.345
nSIGHT-1 16 Dec 17:02:15 17:03:49 13° 33° (NNE) 17:05:22 .
KKS-1 16 Dec 17:07:27 17:11:12 27° 98° (E) 17:14:55 437.445
XW-2C 16 Dec 17:16:39 17:19:46 25° 72° (ENE) 17:22:55 145.795 - 145.815
RS-15 16 Dec 17:22:43 17:30:55 20° 324° (NW) 17:39:05 29.354- 29.394
HO-68 16 Dec 17:37:37 17:43:16 26° 64° (ENE) 17:48:55 435.675
STARS 16 Dec 17:44:06 17:47:44 26° 97° (E) 17:51:22 437.465
O/OREOS (USA 219) 16 Dec 17:48:44 17:52:28 25° 65° (ENE) 17:56:10 437.305
ISS 16 Dec 17:51:13 17:54:06 27° 39° (NE) 17:56:57 437.550
LilacSat-2 16 Dec 17:55:09 17:58:57 82° 258° (WSW) 18:02:48 437.200
NUDT-PHONESAT 16 Dec 18:00:59 18:04:37 67° 77° (ENE) 18:08:18 437.300
XW-2D 16 Dec 18:06:28 18:10:11 58° 260° (W) 18:13:56 145.860 - 145.880
KAITUO 1B 16 Dec 18:08:43 18:12:27 86° 260° (W) 18:16:13 145.475/437.950
SEEDS 16 Dec 18:11:31 18:14:11 17° 70° (ENE) 18:16:51 437.485
CUBEBUG 2 16 Dec 18:14:24 18:17:09 17° 70° (ENE) 18:19:54 437.445
CUTE-I 16 Dec 18:20:28 18:25:48 68° 258° (WSW) 18:31:09 437.470
PCSat 16 Dec 18:22:15 18:27:40 82° 295° (WNW) 18:33:06 145.827
XW-2B 16 Dec 18:22:42 18:26:11 36° 262° (W) 18:29:43 145.730 - 145.750
BEESAT 3 16 Dec 18:29:57 18:32:08 14° 109° (ESE) 18:34:20 437.485
XW-2F 16 Dec 18:32:59 18:36:14 28° 263° (W) 18:39:32 145.980 - 146.000
nSIGHT-1 16 Dec 18:37:06 18:40:14 53° 228° (SW) 18:43:21 .
CUTE 1.7 + AOD 2 16 Dec 18:37:15 18:41:26 62° 76° (ENE) 18:45:39 437.475
KKS-1 16 Dec 18:44:15 18:47:31 21° 290° (WNW) 18:50:46 437.445
XW-2C 16 Dec 18:51:38 18:53:53 15° 265° (W) 18:56:09 145.795 - 145.815
AO-73 16 Dec 19:02:15 19:04:24 14° 69° (ENE) 19:06:35 145.935
BEESAT 2 16 Dec 19:16:13 19:17:44 12° 108° (ESE) 19:19:14 435.950
STARS 16 Dec 19:20:38 19:23:52 21° 290° (WNW) 19:27:05 437.465
FALCONSAT 3 16 Dec 19:20:53 19:21:44 11° 145° (SE) 19:22:35 435.103
HO-68 16 Dec 19:23:36 19:30:32 51° 259° (W) 19:37:30 435.675
FO-29 16 Dec 19:26:26 19:28:16 11° 88° (E) 19:30:01 435.910
ISS 16 Dec 19:28:02 19:30:24 19° 233° (SW) 19:32:46 437.550
O/OREOS (USA 219) 16 Dec 19:28:16 19:31:40 21° 259° (W) 19:35:03 437.305
XW-2A 16 Dec 19:33:15 19:36:32 70° 78° (ENE) 19:39:53 145.665 - 145.685
UWE-3 16 Dec 19:44:00 19:48:07 65° 259° (WSW) 19:52:14 435.000/436.395/437.385
SEEDS 16 Dec 19:45:50 19:49:33 30° 262° (W) 19:53:19 437.485
CUBEBUG 2 16 Dec 19:49:54 19:53:32 28° 263° (W) 19:57:08 437.445
STRAND 1 16 Dec 19:56:53 20:02:00 85° 102° (ESE) 20:07:06 437.568
AAUSAT CUBESAT 2 16 Dec 19:57:02 20:01:08 57° 260° (W) 20:05:16 437.432
ZACube-1 16 Dec 20:03:39 20:07:46 79° 257° (WSW) 20:11:55 437.345
BEESAT 3 16 Dec 20:05:43 20:09:19 33° 302° (WNW) 20:12:58 437.485
Oscar 11 16 Dec 20:18:53 20:23:12 85° 75° (ENE) 20:27:31 .
AO-85 16 Dec 20:30:53 20:33:35 18° 109° (ESE) 20:36:20 145.980
AO-73 16 Dec 20:36:34 20:40:18 33° 262° (W) 20:44:04 145.935
DELFI C3 16 Dec 20:37:35 20:40:37 21° 72° (ENE) 20:43:40 145.870
BEESAT 2 16 Dec 20:51:14 20:55:00 40° 301° (WNW) 20:58:50 435.950
FALCONSAT 3 16 Dec 20:56:46 21:00:22 52° 156° (SSE) 21:03:57 435.103
FO-29 16 Dec 21:07:35 21:14:10 76° 285° (WNW) 21:19:56 435.910
TIGRISAT 16 Dec 21:29:41 21:33:07 22° 97° (E) 21:36:36 435.000
UNISAT 6 16 Dec 21:33:22 21:37:08 27° 97° (E) 21:40:56 437.425
Max Valier Satellite 16 Dec 21:50:58 21:54:32 55° 260° (W) 21:58:09 145.860
RS-15 16 Dec 22:01:47 22:10:35 23° 39° (NE) 22:19:00 29.354- 29.394
AO-85 16 Dec 22:10:31 22:13:44 24° 305° (NW) 22:17:03 145.980
DELFI C3 16 Dec 22:12:11 22:15:12 21° 264° (W) 22:18:14 145.870
EO-88 16 Dec 22:13:18 22:16:44 41° 261° (W) 22:20:13 145.990 - 145.960
FALCONSAT 3 16 Dec 22:35:51 22:39:27 52° 350° (N) 22:43:05 435.103
LO-87 16 Dec 22:36:12 22:39:20 31° 74° (ENE) 22:42:29 145.935 - 145.965
ESTCUBE 1 16 Dec 22:48:04 22:52:12 37° 73° (ENE) 22:56:23 437.505/2401.250
PRISM 16 Dec 23:02:39 23:06:45 84° 104° (ESE) 23:10:48 437.425
AIST 2D 16 Dec 23:04:22 23:07:22 25° 97° (E) 23:10:20 435.315
TIGRISAT 16 Dec 23:06:06 23:09:41 25° 288° (WNW) 23:13:19 435.000
UNISAT 6 16 Dec 23:10:23 23:13:37 20° 289° (WNW) 23:16:55 437.425
EO-79 16 Dec 23:18:44 23:19:57 11° 93° (E) 23:21:09 145.935-145.965
POLYITAN 1 16 Dec 23:40:31 23:43:50 22° 96° (E) 23:47:07 437.675
SO-50 16 Dec 23:52:54 23:57:06 32° 57° (ENE) 00:01:20 436.795
QB50P2 17 Dec 00:05:45 00:09:53 53° 100° (E) 00:14:01 145.880/145.840
DUCHIFAT 1 17 Dec 00:06:56 00:10:46 34° 98° (E) 00:14:36 145.980
VELOX 1 17 Dec 00:10:22 00:14:33 42° 74° (ENE) 00:18:45 145.980
LO-87 17 Dec 00:12:20 00:12:46 10° 266° (W) 00:13:12 145.935 - 145.965
RS-15 17 Dec 00:13:09 00:24:52 86° 62° (ENE) 00:35:57 29.354- 29.394
FALCONSAT 3 17 Dec 00:15:16 00:18:50 46° 5° (N) 00:22:24 435.103
ESTCUBE 1 17 Dec 00:26:27 00:29:04 15° 266° (W) 00:31:41 437.505/2401.250
SPROUT 17 Dec 00:31:25 00:35:36 57° 260° (W) 00:39:46 437.525
NANOSAT C BR1 17 Dec 00:34:34 00:38:46 85° 287° (WNW) 00:42:59 145.865
BUGSAT 1 17 Dec 00:38:26 00:40:57 16° 95° (E) 00:43:29 437.445
AIST 2D 17 Dec 00:38:33 00:40:13 13° 290° (WNW) 00:41:54 435.315
EO-79 17 Dec 00:51:49 00:55:50 43° 286° (WNW) 00:59:50 145.935-145.965
DX 1 17 Dec 00:58:27 01:02:11 28° 71° (ENE) 01:05:56 434.975-435.025
POLYITAN 1 17 Dec 01:16:07 01:19:27 23° 289° (WNW) 01:22:47 437.675
JUGNU 17 Dec 01:19:33 01:21:55 13° 163° (SSE) 01:24:19 437.505
Gurwin Techsat 1B 17 Dec 01:23:41 01:27:52 23° 96° (E) 01:32:03 435.225
YUBILEINY 17 Dec 01:26:32 01:30:23 14° 79° (E) 01:34:14 435.215
SO-50 17 Dec 01:33:44 01:37:21 22° 250° (WSW) 01:41:00 436.795
AO-91 17 Dec 01:41:52 01:45:06 43° 100° (E) 01:48:21 145.960
DUCHIFAT 1 17 Dec 01:43:45 01:46:05 15° 291° (WNW) 01:48:25 145.980
VELOX 1 17 Dec 01:49:01 01:51:06 13° 266° (W) 01:53:11 145.980
FALCONSAT 3 17 Dec 01:54:22 01:58:03 75° 201° (SSW) 02:01:43 435.103
Oscar 19 17 Dec 01:59:43 02:04:56 81° 103° (ESE) 02:10:08 437.125/150
50 SAT 17 Dec 02:02:08 02:04:56 28° 262° (W) 02:07:44 437.505
ITUPSAT 1 17 Dec 02:08:33 02:11:04 14° 67° (ENE) 02:13:35 437.325
UKube-1 17 Dec 02:12:30 02:16:46 59° 259° (W) 02:21:01 .
BUGSAT 1 17 Dec 02:12:47 02:16:16 28° 287° (WNW) 02:19:48 437.445
RS-15 17 Dec 02:28:44 02:35:36 18° 260° (W) 02:42:20 29.354- 29.394
MOZHAYETS 4 17 Dec 02:29:48 02:33:57 37° 73° (ENE) 02:38:08
DX 1 17 Dec 02:35:12 02:38:18 19° 264° (W) 02:41:25 434.975-435.025
Gurwin Techsat 1B 17 Dec 03:03:03 03:07:46 33° 289° (WNW) 03:12:29 435.225
JUGNU 17 Dec 03:05:53 03:10:18 22° 171° (S) 03:14:44 437.505
BEESAT 17 Dec 03:13:27 03:18:12 81° 76° (ENE) 03:22:57 436.000
PCSat 17 Dec 03:15:46 03:20:21 27° 57° (ENE) 03:24:55 145.827
YUBILEINY 17 Dec 03:17:02 03:25:51 89° 271° (W) 03:34:45 435.215
ITAMSAT 1 17 Dec 03:18:42 03:22:31 21° 96° (E) 03:26:18 435.822/435.867
AO-7 17 Dec 03:33:26 03:41:34 52° 103° (ESE) 03:49:37 .
FALCONSAT 3 17 Dec 03:34:25 03:36:47 16° 213° (SSW) 03:39:09 435.103
ITUPSAT 1 17 Dec 03:43:52 03:48:25 46° 260° (W) 03:53:00 437.325
CUBESAT XI-V 17 Dec 03:59:40 04:04:18 85° 80° (E) 04:09:00 437.345
SRMSAT 17 Dec 04:00:46 04:02:33 11° 161° (SSE) 04:04:19 437.500
KKS-1 17 Dec 04:01:45 04:04:07 14° 68° (ENE) 04:06:29 437.445
MOZHAYETS 4 17 Dec 04:08:29 04:11:10 15° 266° (W) 04:13:52
BEESAT 3 17 Dec 04:26:55 04:30:11 25° 56° (NE) 04:33:23 437.485
M-CUBED/EXP-1 PRIME 17 Dec 04:29:50 04:34:06 54° 290° (WNW) 04:38:03 437.505
STARS 17 Dec 04:37:12 04:39:13 13° 67° (ENE) 04:41:14 437.465
JUGNU 17 Dec 04:53:59 04:58:45 26° 182° (S) 05:03:32 437.505
ITAMSAT 1 17 Dec 04:57:17 05:01:59 36° 289° (WNW) 05:06:39 435.822/435.867
DOVE 4 17 Dec 04:57:30 05:01:34 39° 98° (E) 05:05:28 437.250
NO-84 17 Dec 04:58:54 05:01:34 36° 126° (SE) 05:04:19 435.350 FM
PCSat 17 Dec 04:58:55 05:03:40 32° 252° (WSW) 05:08:24 145.827
BEESAT 2 17 Dec 05:13:42 05:16:52 22° 55° (NE) 05:20:00 435.950
YUBILEINY 17 Dec 05:19:27 05:23:43 14° 292° (WNW) 05:28:03 435.215
AO-7 17 Dec 05:26:54 05:33:51 30° 298° (WNW) 05:40:48 .
LilacSat-2 17 Dec 05:34:26 05:36:47 15° 95° (E) 05:39:07 437.200
KKS-1 17 Dec 05:36:03 05:40:16 41° 261° (W) 05:44:29 437.445
XW-2D 17 Dec 05:44:26 05:47:17 20° 96° (E) 05:50:06 145.860 - 145.880
KAITUO 1B 17 Dec 05:46:09 05:48:01 13° 94° (E) 05:49:51 145.475/437.950
SRMSAT 17 Dec 05:46:38 05:51:05 22° 170° (S) 05:55:32 437.500
XW-2B 17 Dec 05:59:55 06:03:21 30° 98° (E) 06:06:44 145.730 - 145.750
BEESAT 3 17 Dec 06:04:46 06:07:29 18° 250° (WSW) 06:10:10 437.485
XW-2F 17 Dec 06:09:18 06:12:54 38° 99° (E) 06:16:26 145.980 - 146.000
STARS 17 Dec 06:10:56 06:15:07 43° 260° (W) 06:19:18 437.465
XW-2C 17 Dec 06:27:08 06:31:00 78° 101° (E) 06:34:48 145.795 - 145.815
CUTE 1.7 + AOD 2 17 Dec 06:28:19 06:30:57 16° 94° (E) 06:33:34 437.475
DOVE 4 17 Dec 06:36:52 06:38:48 13° 293° (WNW) 06:40:42 437.250
NO-84 17 Dec 06:37:51 06:38:56 11° 323° (NW) 06:40:03 435.350 FM
CUTE-I 17 Dec 06:42:40 06:47:59 75° 102° (ESE) 06:53:17 437.470
JUGNU 17 Dec 06:43:04 06:47:11 20° 191° (SSW) 06:51:20 437.505
AO-85 17 Dec 06:44:25 06:49:19 61° 61° (ENE) 06:54:29 145.980
BEESAT 2 17 Dec 06:51:19 06:54:27 22° 250° (WSW) 06:57:32 435.950
HO-68 17 Dec 06:56:50 07:03:34 43° 100° (E) 07:10:15 435.675
STRAND 1 17 Dec 07:07:30 07:12:35 71° 75° (ENE) 07:17:41 437.568
LilacSat-2 17 Dec 07:07:44 07:11:00 26° 287° (WNW) 07:14:14 437.200
NUDT-PHONESAT 17 Dec 07:09:30 07:13:02 40° 285° (WNW) 07:16:32 437.300
FO-29 17 Dec 07:12:12 07:18:50 32° 67° (ENE) 07:25:33 435.910
XW-2D 17 Dec 07:18:26 07:21:17 20° 288° (WNW) 07:24:07 145.860 - 145.880
KAITUO 1B 17 Dec 07:18:41 07:21:58 28° 287° (WNW) 07:25:14 145.475/437.950
SEEDS 17 Dec 07:33:54 07:38:06 61° 101° (E) 07:42:15 437.485
SRMSAT 17 Dec 07:34:48 07:39:43 27° 180° (S) 07:44:40 437.500
XW-2B 17 Dec 07:35:15 07:37:10 13° 291° (WNW) 07:39:05 145.730 - 145.750
UWE-3 17 Dec 07:38:09 07:42:11 35° 98° (E) 07:46:19 435.000/436.395/437.385
AAUSAT CUBESAT 2 17 Dec 07:44:15 07:47:54 30° 97° (E) 07:51:33 437.432
CUBEBUG 2 17 Dec 07:44:19 07:48:40 83° 102° (ESE) 07:53:09 437.445
XW-2F 17 Dec 07:45:38 07:46:33 11° 292° (WNW) 07:47:29 145.980 - 146.000
O/OREOS (USA 219) 17 Dec 07:54:58 07:59:33 79° 108° (ESE) 08:04:08 437.305
ZACube-1 17 Dec 07:56:46 08:00:38 29° 97° (E) 08:04:32 437.345
CUTE 1.7 + AOD 2 17 Dec 08:02:59 08:06:48 31° 287° (WNW) 08:10:33 437.475
Oscar 11 17 Dec 08:11:43 08:15:10 23° 96° (E) 08:18:36 .
CUTE-I 17 Dec 08:26:01 08:27:19 11° 297° (WNW) 08:28:37 437.470
TIGRISAT 17 Dec 08:26:51 08:26:55 10° 67° (ENE) 08:26:59 435.000
AO-85 17 Dec 08:26:59 08:29:19 13° 252° (WSW) 08:31:43 145.980
AO-73 17 Dec 08:28:26 08:32:49 62° 100° (E) 08:37:17 145.935
UNISAT 6 17 Dec 08:29:04 08:30:57 13° 68° (ENE) 08:32:49 437.425
XW-2A 17 Dec 08:31:54 08:35:13 48° 284° (WNW) 08:38:31 145.665 - 145.685
HO-68 17 Dec 08:44:59 08:50:59 30° 294° (WNW) 08:56:58 435.675
FO-29 17 Dec 08:56:08 09:03:26 47° 262° (W) 09:10:57 435.910
UWE-3 17 Dec 09:15:38 09:18:19 16° 290° (WNW) 09:21:02 435.000/436.395/437.385
AAUSAT CUBESAT 2 17 Dec 09:20:31 09:23:03 16° 290° (WNW) 09:25:35 437.432
SRMSAT 17 Dec 09:23:54 09:28:21 22° 190° (S) 09:32:49 437.500
Max Valier Satellite 17 Dec 09:26:18 09:28:55 18° 96° (E) 09:31:32 145.860
ZACube-1 17 Dec 09:33:30 09:36:40 20° 289° (WNW) 09:39:52 437.345
nSIGHT-1 17 Dec 09:34:15 09:37:19 44° 131° (SE) 09:40:23 .
PRISM 17 Dec 09:46:50 09:50:23 28° 72° (ENE) 09:53:57 437.425
EO-88 17 Dec 09:46:58 09:49:51 22° 96° (E) 09:52:42 145.990 - 145.960
Oscar 11 17 Dec 09:47:42 09:51:09 23° 289° (WNW) 09:54:36 .
DELFI C3 17 Dec 09:52:40 09:56:36 69° 101° (ESE) 10:00:28 145.870
TIGRISAT 17 Dec 09:58:55 10:03:06 52° 260° (W) 10:07:16 435.000
UNISAT 6 17 Dec 10:03:12 10:07:16 41° 261° (W) 10:11:18 437.425
